Terminal Aerodrome Forecast
Issued by NWS Atlanta, GA

Home | Current Version | Previous Version | Text Only | Print | Product List | Glossary On
Versions: 1 2 3 4 5 6 7 8 9 10 11 12 13 14 15 16 17 18 19 20 21 22 23 24 25 26 27 28 29 30 31 32 33 34 35
000
FTUS42 KFFC 061723
TAFAHN
TAF
KAHN 061723Z 0618/0718 02005KT P6SM BKN045
     FM062000 32005KT P6SM SCT045
     FM070000 00000KT P6SM FEW250
     FM071700 30005KT P6SM SCT150=

USA.gov is the U.S. government's official web portal to all federal, state and local government web resources and services.